sat.trackr.live / text

‹ back to catalog

STARLINK-1724

NORAD 46375 · 2020-062BC

PAYLOAD ACTIVE UNKNOWN

§ Identity

Operator
Country
US
Launch date
2020-09-03
Launch site
AFETR
Launch vehicle
Mass (kg)
RCS (m²)

Purposes: comms

External: N2YO · Heavens-Above · Gunter

§ Orbital elements

Epoch: 2026-09-19T23:16:28.679232Z

Period
88.43 min
Inclination
53.0003°
Eccentricity
0.0012053
Mean motion
16.28440930 rev/d
Perigee alt
188.8 km
Apogee alt
204.7 km
Semi-major
6,574.9 km
B*
9.6726e-4
RAAN
39.2917°
Arg perigee
311.4344°
Mean anomaly
48.5660°
Rev number
33,617

§ Raw data

STARLINK-17241 46375U 20062BC  26262.96977638  .03996894  12077-4  96726-3 0  99902 46375  53.0003  39.2917 0012053 311.4344  48.5660 16.28440930336176

JSON: /api/v1/satellites/46375 · /tle

For live sub-satellite position, see the globe view (requires WebGL).

§ Visibility from observer

Set your observer location to see the next 7 days of passes ≥ 10°. The values pass through the URL so the page stays shareable.

No JS? Fill the form by hand. The geolocation button needs JavaScript.